G8PZT Weather Reports


Display with metric or nautical units.
time (UTC)temp
F
wind
direction
speed
MPH
gust
MPH
rain 1hr
in
rain 24hr
in
rain mn
in
humidity
%
barometer
mb
20260505195156 51 0 0.0 0.0 0.00 0.00 0.00 45
20260505194156 51 0 0.0 0.0 0.00 0.00 0.00 44
20260505194002 51 0 0.0 0.0 0.00 0.00 0.00 43
20260505193156 51 0 0.0 0.0 0.00 0.00 0.00 43
20260505192156 52 0 0.0 0.0 0.00 0.00 0.00 42
20260505192002 52 0 0.0 0.0 0.00 0.00 0.00 42
20260505190155 52 0 0.0 0.0 0.00 0.00 0.00 41
20260505190003 52 0 0.0 0.0 0.00 0.00 0.00 41
20260505185155 52 0 0.0 0.0 0.00 0.00 0.00 40
20260505184155 53 0 0.0 0.0 0.00 0.00 0.00 39
20260505184003 53 0 0.0 0.0 0.00 0.00 0.00 38
20260505183156 53 0 0.0 0.0 0.00 0.00 0.00 37
20260505182155 54 0 0.0 0.0 0.00 0.00 0.00 37
20260505182002 54 0 0.0 0.0 0.00 0.00 0.00 36
20260505181156 54 0 0.0 0.0 0.00 0.00 0.00 36
20260505180156 54 0 0.0 0.0 0.00 0.00 0.00 35
20260505180003 54 0 0.0 0.0 0.00 0.00 0.00 35
20260505175156 55 0 0.0 0.0 0.00 0.00 0.00 34
20260505174156 56 0 0.0 0.0 0.00 0.00 0.00 32
20260505173156 56 0 0.0 0.0 0.00 0.00 0.00 31
20260505172156 56 0 0.0 0.0 0.00 0.00 0.00 28
20260505171156 57 0 0.0 0.0 0.00 0.00 0.00 25
20260505170155 58 0 0.0 0.0 0.00 0.00 0.00 23
20260505165155 58 0 0.0 0.0 0.00 0.00 0.00 23
20260505164155 60 0 0.0 0.0 0.00 0.00 0.00 23
20260505163156 61 0 0.0 0.0 0.00 0.00 0.00 22
20260505162155 64 0 0.0 0.0 0.00 0.00 0.00 21
20260505161155 61 0 0.0 0.0 0.00 0.00 0.00 22
20260505152156 62 0 0.0 0.0 0.00 0.00 0.00 22
20260505151156 61 0 0.0 0.0 0.00 0.00 0.00 22
20260505150156 62 0 0.0 0.0 0.00 0.00 0.00 22
20260505130156 57 0 0.0 0.0 0.00 0.00 0.00 28
20260505124002 57 0 0.0 0.0 0.00 0.00 0.00 24
20260505123155 58 0 0.0 0.0 0.00 0.00 0.00 24
20260505122155 58 0 0.0 0.0 0.00 0.00 0.00 23
20260505122002 58 0 0.0 0.0 0.00 0.00 0.00 23
20260505120155 58 0 0.0 0.0 0.00 0.00 0.00 23
20260505120003 57 0 0.0 0.0 0.00 0.00 0.00 23
20260505115156 57 0 0.0 0.0 0.00 0.00 0.00 24
20260505114156 58 0 0.0 0.0 0.00 0.00 0.00 24
20260505114002 58 0 0.0 0.0 0.00 0.00 0.00 25
20260505113156 59 0 0.0 0.0 0.00 0.00 0.00 25
20260505112156 58 0 0.0 0.0 0.00 0.00 0.00 25
20260505112003 58 0 0.0 0.0 0.00 0.00 0.00 25
20260505111156 57 0 0.0 0.0 0.00 0.00 0.00 27
20260505110156 56 0 0.0 0.0 0.00 0.00 0.00 26
20260505102155 59 0 0.0 0.0 0.00 0.00 0.00 23
20260505101155 61 0 0.0 0.0 0.00 0.00 0.00 22
20260505100156 60 0 0.0 0.0 0.00 0.00 0.00 22
20260505095156 59 0 0.0 0.0 0.00 0.00 0.00 23
20260505094156 60 0 0.0 0.0 0.00 0.00 0.00 22
20260505094002 59 0 0.0 0.0 0.00 0.00 0.00 23
20260505093201 58 0 0.0 0.0 0.00 0.00 0.00 23
20260505092156 58 0 0.0 0.0 0.00 0.00 0.00 23
20260505092002 58 0 0.0 0.0 0.00 0.00 0.00 23
20260505091156 57 0 0.0 0.0 0.00 0.00 0.00 24
20260505090156 55 0 0.0 0.0 0.00 0.00 0.00 24
20260505090002 56 0 0.0 0.0 0.00 0.00 0.00 24
20260505085156 56 0 0.0 0.0 0.00 0.00 0.00 25
20260505084155 55 0 0.0 0.0 0.00 0.00 0.00 26
20260505084002 55 0 0.0 0.0 0.00 0.00 0.00 26
20260505083155 56 0 0.0 0.0 0.00 0.00 0.00 25
20260505082155 55 0 0.0 2.0 0.00 0.00 0.00 29
20260505082002 55 0 0.0 2.0 0.00 0.00 0.00 29
20260505081155 55 0 2.0 2.0 0.00 0.00 0.00 29
20260505080155 55 0 0.0 0.0 0.00 0.00 0.00 30
20260505080003 55 0 0.0 0.0 0.00 0.00 0.00 32
20260505075155 55 0 0.0 0.0 0.00 0.00 0.00 34
20260505074156 53 0 0.0 0.0 0.00 0.00 0.00 36
20260505074002 53 0 0.0 0.0 0.00 0.00 0.00 37
20260505073155 53 0 0.0 0.0 0.00 0.00 0.00 38
20260505072156 52 0 0.0 0.0 0.00 0.00 0.00 38
20260505072002 52 0 0.0 0.0 0.00 0.00 0.00 38
20260505070003 52 0 0.0 0.0 0.00 0.00 0.00 39
20260505065156 53 0 0.0 0.0 0.00 0.00 0.00 40
20260505064156 52 0 0.0 0.0 0.00 0.00 0.00 43
20260505064002 52 0 0.0 0.0 0.00 0.00 0.00 43
20260505063155 53 0 0.0 0.0 0.00 0.00 0.00 55
20260505062155 51 0 0.0 0.0 0.00 0.00 0.00 67
20260505062002 50 0 0.0 0.0 0.00 0.00 0.00 69
20260505061155 48 0 0.0 0.0 0.00 0.00 0.00 72
20260505060155 45 0 0.0 0.0 0.00 0.00 0.00 70
20260505060002 45 0 0.0 0.0 0.00 0.00 0.00 70
20260505055155 44 0 0.0 0.0 0.00 0.00 0.00 70
20260505054156 44 0 0.0 0.0 0.00 0.00 0.00 70
20260505054003 44 0 0.0 0.0 0.00 0.00 0.00 70
20260505052156 45 0 0.0 0.0 0.00 0.00 0.00 71
20260505052002 45 0 0.0 0.0 0.00 0.00 0.00 71
20260505050156 45 0 0.0 0.0 0.00 0.00 0.00 70
20260505041155 44 0 0.0 0.0 0.00 0.00 0.00 69
20260505040155 44 0 0.0 0.0 0.00 0.00 0.00 69
20260505040002 44 0 0.0 0.0 0.00 0.00 0.00 69
20260505035155 44 0 0.0 0.0 0.00 0.00 0.00 69
20260505034155 44 0 0.0 0.0 0.00 0.00 0.00 69
20260505034002 44 0 0.0 0.0 0.00 0.00 0.00 69
20260505033155 45 0 0.0 0.0 0.00 0.00 0.00 69
20260505032156 45 0 0.0 0.0 0.00 0.00 0.00 69
20260505031156 45 0 0.0 0.0 0.00 0.00 0.00 69
20260505030156 45 0 0.0 0.0 0.00 0.00 0.00 69
20260505030002 45 0 0.0 0.0 0.00 0.00 0.00 69
20260505024156 45 0 0.0 0.0 0.00 0.00 0.00 68
20260505024002 45 0 0.0 0.0 0.00 0.00 0.00 68
20260505023156 45 0 0.0 0.0 0.00 0.00 0.00 68
20260505022155 45 0 0.0 0.0 0.00 0.00 0.00 67
20260505022002 45 0 0.0 0.0 0.00 0.00 0.00 67
20260505021155 45 0 0.0 0.0 0.00 0.00 0.00 67
20260505020155 45 0 0.0 0.0 0.00 0.00 0.00 67
20260505020002 45 0 0.0 0.0 0.00 0.00 0.00 67
20260505015155 45 0 0.0 0.0 0.00 0.00 0.00 67
20260505014155 46 0 0.0 0.0 0.00 0.00 0.00 68
20260505014002 46 0 0.0 0.0 0.00 0.00 0.00 68
20260505013155 46 0 0.0 0.0 0.00 0.00 0.00 69
20260505012156 46 0 0.0 0.0 0.00 0.00 0.00 71
20260505012002 46 0 0.0 0.0 0.00 0.00 0.00 71
20260505010156 47 0 0.0 0.0 0.00 0.00 0.00 72
20260505010003 47 0 0.0 0.0 0.00 0.00 0.00 72
20260505005156 47 0 0.0 0.0 0.00 0.00 0.00 72
20260505004156 47 0 0.0 0.0 0.00 0.00 0.00 72
20260505004003 47 0 0.0 0.0 0.00 0.00 0.00 72
20260505003156 47 0 0.0 0.0 0.00 0.00 0.00 72
20260505002002 46 0 0.0 0.0 0.00 0.00 0.00 72
20260505000155 47 0 0.0 0.0 0.00 0.00 0.00 70
20260504235155 47 0 0.0 0.0 0.00 0.00 0.00 70
20260504234156 47 0 0.0 0.0 0.00 0.00 0.00 70
20260504233156 47 0 0.0 0.0 0.00 0.00 0.00 70
20260504232156 47 0 0.0 0.0 0.00 0.00 0.00 70
20260504232002 47 0 0.0 0.0 0.00 0.00 0.00 70
20260504231156 47 0 0.0 0.0 0.00 0.00 0.00 70
20260504230156 47 0 0.0 0.0 0.00 0.00 0.00 70
20260504230002 47 0 0.0 0.0 0.00 0.00 0.00 70
20260504225156 47 0 0.0 0.0 0.00 0.00 0.00 70
20260504224156 47 0 0.0 0.0 0.00 0.00 0.00 69
20260504224003 46 0 0.0 0.0 0.00 0.00 0.00 66
20260504223156 46 0 0.0 0.0 0.00 0.00 0.00 66
20260504222156 46 0 0.0 0.0 0.00 0.00 0.00 65
20260504222002 46 0 0.0 0.0 0.00 0.00 0.00 64
20260504221156 46 0 0.0 0.0 0.00 0.00 0.00 64
20260504220155 46 0 0.0 0.0 0.00 0.00 0.00 64
20260504220002 46 0 0.0 0.0 0.00 0.00 0.00 64
20260504215155 46 0 0.0 0.0 0.00 0.00 0.00 63
20260504214155 46 0 0.0 0.0 0.00 0.00 0.00 62
20260504214002 46 0 0.0 0.0 0.00 0.00 0.00 62
20260504213155 47 0 0.0 0.0 0.00 0.00 0.00 60
20260504212156 47 0 0.0 0.0 0.00 0.00 0.00 60
20260504212002 47 0 0.0 0.0 0.00 0.00 0.00 60
20260504211155 48 0 0.0 0.0 0.00 0.00 0.00 59
20260504210156 49 0 0.0 0.0 0.00 0.00 0.00 56
20260504210003 49 0 0.0 0.0 0.00 0.00 0.00 56
20260504205156 49 0 0.0 0.0 0.00 0.00 0.00 54
20260504204156 50 0 0.0 0.0 0.00 0.00 0.00 52
20260504204002 50 0 0.0 0.0 0.00 0.00 0.00 52
20260504203156 51 0 0.0 0.0 0.00 0.00 0.00 50
20260504202156 52 0 0.0 0.0 0.00 0.00 0.00 49
20260504202002 53 0 0.0 0.0 0.00 0.00 0.00 48
20260504201156 53 0 0.0 0.0 0.00 0.00 0.00 47
20260504200156 54 0 0.0 0.0 0.00 0.00 0.00 47
20260504200003 54 0 0.0 0.0 0.00 0.00 0.00 47